| time (UTC) | temp F | wind direction | speed MPH | gust MPH | rain 1hr in | rain 24hr in | rain mn in | humidity % | barometer mb |
| 20260508061310 | 50 | 161 | 0.0 | 1.0 | 0.00 | 0.00 | 0.00 | 98 | 1013.6 |
| 20260508060309 | 49 | 135 | 0.0 | 1.0 | 0.00 | 0.00 | 0.00 | 98 | 1013.6 |
| 20260508054309 | 49 | 178 | 0.0 | 2.0 | 0.00 | 0.00 | 0.00 | 98 | 1013.6 |
| 20260508053309 | 48 | 1 | 0.0 | 1.0 | 0.00 | 0.00 | 0.00 | 98 | 1013.5 |
| 20260508052309 | 48 | 250 | 0.0 | 2.0 | 0.00 | 0.00 | 0.00 | 98 | 1013.6 |
| 20260508051309 | 48 | 286 | 1.0 | 3.0 | 0.00 | 0.00 | 0.00 | 98 | 1013.6 |
| 20260508045309 | 48 | 269 | 1.0 | 4.0 | 0.00 | 0.00 | 0.00 | 98 | 1013.6 |
| 20260508043309 | 47 | 250 | 1.0 | 2.0 | 0.00 | 0.00 | 0.00 | 98 | 1013.6 |
| 20260508042310 | 47 | 250 | 0.0 | 2.0 | 0.00 | 0.00 | 0.00 | 98 | 1013.6 |
| 20260508041312 | 47 | 193 | 0.0 | 3.0 | 0.00 | 0.00 | 0.00 | 98 | 1013.7 |
| 20260508040312 | 47 | 178 | 1.0 | 3.0 | 0.00 | 0.00 | 0.00 | 97 | 1013.6 |
| 20260508035312 | 48 | 269 | 1.0 | 2.0 | 0.00 | 0.00 | 0.00 | 97 | 1013.6 |
| 20260508033312 | 48 | 206 | 1.0 | 4.0 | 0.00 | 0.00 | 0.00 | 97 | 1013.6 |
| 20260508032312 | 48 | 269 | 2.0 | 4.0 | 0.00 | 0.00 | 0.00 | 97 | 1013.6 |
| 20260508031312 | 48 | 284 | 2.0 | 4.0 | 0.00 | 0.00 | 0.00 | 97 | 1013.6 |
| 20260508030312 | 48 | 278 | 2.0 | 4.0 | 0.00 | 0.00 | 0.00 | 97 | 1013.5 |
| 20260508025312 | 48 | 308 | 2.0 | 4.0 | 0.00 | 0.00 | 0.00 | 97 | 1013.5 |
| 20260508024312 | 48 | 306 | 2.0 | 4.0 | 0.00 | 0.00 | 0.00 | 97 | 1013.6 |
| 20260508023312 | 48 | 269 | 1.0 | 3.0 | 0.00 | 0.00 | 0.00 | 97 | 1013.5 |
| 20260508022312 | 48 | 206 | 1.0 | 4.0 | 0.00 | 0.00 | 0.00 | 97 | 1013.5 |
| 20260508021312 | 48 | 259 | 2.0 | 4.0 | 0.00 | 0.00 | 0.00 | 97 | 1013.7 |
| 20260508020312 | 49 | 253 | 2.0 | 4.0 | 0.00 | 0.00 | 0.00 | 97 | 1013.6 |
| 20260508014312 | 49 | 238 | 3.0 | 4.0 | 0.00 | 0.00 | 0.00 | 97 | 1013.7 |
| 20260508012311 | 49 | 284 | 1.0 | 4.0 | 0.00 | 0.00 | 0.00 | 97 | 1013.7 |
| 20260508011312 | 49 | 269 | 2.0 | 4.0 | 0.00 | 0.00 | 0.00 | 97 | 1013.9 |
| 20260508010312 | 50 | 269 | 2.0 | 3.0 | 0.00 | 0.00 | 0.00 | 97 | 1014.0 |
| 20260508005312 | 50 | 231 | 1.0 | 2.0 | 0.00 | 0.00 | 0.00 | 97 | 1014.0 |
| 20260508004311 | 50 | 219 | 2.0 | 5.0 | 0.00 | 0.00 | 0.00 | 97 | 1014.2 |
| 20260508003311 | 50 | 274 | 2.0 | 4.0 | 0.00 | 0.00 | 0.00 | 97 | 1014.2 |
| 20260508002312 | 50 | 269 | 2.0 | 3.0 | 0.00 | 0.00 | 0.00 | 97 | 1014.2 |
| 20260507235311 | 50 | 279 | 2.0 | 3.0 | 0.00 | 0.00 | 0.00 | 97 | 1014.1 |
| 20260507234311 | 50 | 283 | 1.0 | 2.0 | 0.00 | 0.00 | 0.00 | 96 | 1014.1 |
| 20260507233311 | 50 | 279 | 1.0 | 2.0 | 0.00 | 0.00 | 0.00 | 96 | 1014.1 |
| 20260507232311 | 50 | 269 | 1.0 | 1.0 | 0.00 | 0.00 | 0.00 | 96 | 1014.2 |
| 20260507231312 | 51 | 269 | 1.0 | 3.0 | 0.00 | 0.00 | 0.00 | 96 | 1014.2 |
| 20260507225311 | 50 | 300 | 2.0 | 4.0 | 0.00 | 0.00 | 0.00 | 96 | 1014.2 |
| 20260507224311 | 50 | 284 | 2.0 | 3.0 | 0.00 | 0.00 | 0.00 | 96 | 1014.2 |
| 20260507222311 | 50 | 277 | 3.0 | 4.0 | 0.00 | 0.00 | 0.00 | 96 | 1014.3 |
| 20260507221311 | 50 | 240 | 1.0 | 3.0 | 0.00 | 0.00 | 0.00 | 96 | 1014.3 |
| 20260507220311 | 50 | 223 | 1.0 | 2.0 | 0.00 | 0.00 | 0.00 | 96 | 1014.2 |
| 20260507215311 | 51 | 269 | 1.0 | 2.0 | 0.00 | 0.24 | 0.24 | 96 | 1014.2 |
| 20260507213311 | 51 | 269 | 1.0 | 2.0 | 0.00 | 0.24 | 0.24 | 96 | 1014.2 |
| 20260507212311 | 51 | 178 | 1.0 | 2.0 | 0.00 | 0.24 | 0.24 | 96 | 1014.2 |
| 20260507211311 | 51 | 269 | 0.0 | 1.0 | 0.00 | 0.24 | 0.24 | 96 | 1013.9 |
| 20260507210311 | 52 | 46 | 0.0 | 1.0 | 0.00 | 0.24 | 0.24 | 96 | 1014.1 |
| 20260507205311 | 52 | 46 | 2.0 | 3.0 | 0.00 | 0.24 | 0.24 | 96 | 1014.0 |
| 20260507204311 | 52 | 145 | 1.0 | 2.0 | 0.00 | 0.24 | 0.24 | 96 | 1013.8 |
| 20260507203311 | 53 | 269 | 1.0 | 2.0 | 0.00 | 0.24 | 0.24 | 96 | 1013.9 |
| 20260507202311 | 53 | 269 | 1.0 | 4.0 | 0.00 | 0.24 | 0.24 | 96 | 1013.8 |
| 20260507201311 | 53 | 269 | 3.0 | 7.0 | 0.00 | 0.24 | 0.24 | 96 | 1013.7 |
| 20260507200311 | 53 | 290 | 3.0 | 4.0 | 0.00 | 0.24 | 0.24 | 96 | 1013.4 |
| 20260507195311 | 54 | 206 | 1.0 | 2.0 | 0.00 | 0.24 | 0.24 | 95 | 1013.2 |
| 20260507194311 | 54 | 135 | 0.0 | 2.0 | 0.00 | 0.24 | 0.24 | 96 | 1013.2 |
| 20260507193311 | 54 | 314 | 1.0 | 1.0 | 0.00 | 0.24 | 0.24 | 96 | 1013.1 |
| 20260507192311 | 54 | 56 | 1.0 | 2.0 | 0.00 | 0.24 | 0.24 | 96 | 1013.1 |
| 20260507191311 | 54 | 46 | 0.0 | 2.0 | 0.00 | 0.24 | 0.24 | 96 | 1013.1 |
| 20260507190311 | 54 | 213 | 2.0 | 3.0 | 0.00 | 0.24 | 0.24 | 96 | 1013.0 |
| 20260507185311 | 55 | 165 | 2.0 | 3.0 | 0.00 | 0.24 | 0.24 | 96 | 1013.0 |
| 20260507184311 | 55 | 139 | 2.0 | 4.0 | 0.00 | 0.24 | 0.24 | 96 | 1013.0 |
| 20260507182311 | 55 | 117 | 2.0 | 4.0 | 0.00 | 0.24 | 0.24 | 96 | 1012.7 |
| 20260507175311 | 55 | 135 | 2.0 | 4.0 | 0.02 | 0.24 | 0.24 | 95 | 1012.7 |
| 20260507174311 | 54 | 117 | 2.0 | 5.0 | 0.02 | 0.24 | 0.24 | 95 | 1012.7 |
| 20260507173311 | 54 | 223 | 2.0 | 5.0 | 0.03 | 0.24 | 0.24 | 95 | 1012.8 |
| 20260507172311 | 54 | 172 | 2.0 | 3.0 | 0.04 | 0.24 | 0.24 | 95 | 1012.8 |
| 20260507171311 | 54 | 135 | 1.0 | 3.0 | 0.04 | 0.24 | 0.24 | 94 | 1013.0 |
| 20260507164311 | 54 | 217 | 4.0 | 9.0 | 0.03 | 0.22 | 0.22 | 94 | 1013.3 |
| 20260507162311 | 55 | 185 | 3.0 | 5.0 | 0.06 | 0.20 | 0.20 | 94 | 1013.1 |
| 20260507161311 | 55 | 1 | 1.0 | 4.0 | 0.09 | 0.20 | 0.20 | 94 | 1013.2 |
| 20260507160310 | 55 | 28 | 1.0 | 4.0 | 0.09 | 0.19 | 0.19 | 94 | 1013.1 |
| 20260507154310 | 56 | 178 | 1.0 | 4.0 | 0.09 | 0.19 | 0.19 | 94 | 1013.1 |
| 20260507153311 | 56 | 329 | 3.0 | 5.0 | 0.07 | 0.17 | 0.17 | 93 | 1013.4 |
| 20260507152312 | 56 | 288 | 9.0 | 12.0 | 0.04 | 0.14 | 0.14 | 93 | 1013.4 |
| 20260507151310 | 56 | 344 | 1.0 | 4.0 | 0.00 | 0.10 | 0.10 | 92 | 1013.3 |
| 20260507150310 | 56 | 56 | 4.0 | 5.0 | 0.00 | 0.10 | 0.10 | 92 | 1013.2 |
| 20260507145311 | 57 | 70 | 3.0 | 6.0 | 0.01 | 0.10 | 0.10 | 92 | 1013.2 |
| 20260507144310 | 57 | 89 | 4.0 | 7.0 | 0.04 | 0.10 | 0.10 | 92 | 1013.2 |
| 20260507143311 | 57 | 1 | 2.0 | 5.0 | 0.06 | 0.10 | 0.10 | 91 | 1013.2 |
| 20260507142310 | 57 | 8 | 3.0 | 7.0 | 0.07 | 0.10 | 0.10 | 91 | 1013.2 |
| 20260507141310 | 57 | 20 | 2.0 | 3.0 | 0.09 | 0.10 | 0.10 | 91 | 1013.4 |
| 20260507140311 | 57 | 135 | 0.0 | 2.0 | 0.10 | 0.10 | 0.10 | 90 | 1013.4 |
| 20260507135310 | 57 | 269 | 0.0 | 2.0 | 0.09 | 0.09 | 0.09 | 89 | 1013.5 |
| 20260507134310 | 57 | 269 | 0.0 | 2.0 | 0.06 | 0.06 | 0.06 | 88 | 1013.7 |
| 20260507133310 | 57 | 286 | 1.0 | 2.0 | 0.04 | 0.04 | 0.04 | 87 | 1013.7 |
| 20260507132310 | 58 | 161 | 1.0 | 5.0 | 0.03 | 0.03 | 0.03 | 86 | 1013.9 |
| 20260507130310 | 58 | 168 | 3.0 | 8.0 | 0.00 | 0.00 | 0.00 | 85 | 1013.7 |
| 20260507124310 | 58 | 89 | 1.0 | 4.0 | 0.00 | 0.00 | 0.00 | 87 | 1013.6 |
| 20260507123310 | 57 | 8 | 3.0 | 6.0 | 0.00 | 0.00 | 0.00 | 86 | 1013.8 |
| 20260507122310 | 57 | 329 | 3.0 | 8.0 | 0.00 | 0.00 | 0.00 | 84 | 1013.8 |
| 20260507121310 | 58 | 71 | 4.0 | 9.0 | 0.00 | 0.00 | 0.00 | 85 | 1013.9 |
| 20260507120310 | 57 | 360 | 5.0 | 8.0 | 0.00 | 0.00 | 0.00 | 85 | 1014.0 |
| 20260507115310 | 57 | 51 | 5.0 | 8.0 | 0.00 | 0.00 | 0.00 | 85 | 1014.0 |
| 20260507114310 | 57 | 84 | 4.0 | 9.0 | 0.00 | 0.00 | 0.00 | 84 | 1014.0 |
| 20260507113310 | 58 | 107 | 6.0 | 9.0 | 0.00 | 0.00 | 0.00 | 83 | 1014.1 |
| 20260507111310 | 59 | 127 | 8.0 | 13.0 | 0.00 | 0.00 | 0.00 | 83 | 1014.3 |
| 20260507110310 | 58 | 148 | 4.0 | 10.0 | 0.00 | 0.00 | 0.00 | 83 | 1014.4 |
| 20260507105310 | 58 | 178 | 5.0 | 9.0 | 0.00 | 0.00 | 0.00 | 84 | 1014.5 |
| 20260507104310 | 57 | 156 | 4.0 | 8.0 | 0.00 | 0.00 | 0.00 | 85 | 1014.6 |
| 20260507103310 | 56 | 142 | 4.0 | 9.0 | 0.00 | 0.00 | 0.00 | 86 | 1014.7 |
| 20260507102310 | 56 | 135 | 4.0 | 8.0 | 0.00 | 0.00 | 0.00 | 86 | 1014.7 |
| 20260507101310 | 55 | 89 | 2.0 | 7.0 | 0.00 | 0.00 | 0.00 | 86 | 1014.7 |
| 20260507100310 | 54 | 140 | 6.0 | 8.0 | 0.00 | 0.00 | 0.00 | 86 | 1014.7 |
| 20260507094310 | 54 | 110 | 4.0 | 6.0 | 0.00 | 0.00 | 0.00 | 86 | 1014.7 |
| 20260507093310 | 54 | 176 | 4.0 | 7.0 | 0.00 | 0.00 | 0.00 | 86 | 1014.7 |
| 20260507092310 | 54 | 128 | 4.0 | 8.0 | 0.00 | 0.00 | 0.00 | 85 | 1014.7 |
| 20260507085309 | 53 | 202 | 2.0 | 8.0 | 0.00 | 0.00 | 0.00 | 85 | 1014.7 |
| 20260507084310 | 53 | 150 | 4.0 | 7.0 | 0.00 | 0.00 | 0.00 | 85 | 1014.6 |
| 20260507083310 | 53 | 161 | 4.0 | 9.0 | 0.00 | 0.00 | 0.00 | 85 | 1014.6 |
| 20260507082309 | 53 | 241 | 2.0 | 8.0 | 0.00 | 0.00 | 0.00 | 86 | 1014.6 |
| 20260507080309 | 52 | 81 | 2.0 | 7.0 | 0.00 | 0.00 | 0.00 | 86 | 1014.6 |
| 20260507075310 | 52 | 152 | 4.0 | 8.0 | 0.00 | 0.00 | 0.00 | 86 | 1014.6 |
| 20260507074309 | 52 | 149 | 5.0 | 9.0 | 0.00 | 0.00 | 0.00 | 87 | 1014.4 |
| 20260507073310 | 51 | 143 | 3.0 | 10.0 | 0.00 | 0.00 | 0.00 | 88 | 1014.5 |
| 20260507072309 | 51 | 129 | 4.0 | 9.0 | 0.00 | 0.00 | 0.00 | 88 | 1014.3 |
| 20260507071309 | 51 | 135 | 4.0 | 8.0 | 0.00 | 0.00 | 0.00 | 88 | 1014.3 |
| 20260507070309 | 51 | 165 | 2.0 | 7.0 | 0.00 | 0.00 | 0.00 | 89 | 1014.2 |
| 20260507065309 | 51 | 168 | 4.0 | 9.0 | 0.00 | 0.00 | 0.00 | 89 | 1014.2 |
| 20260507064309 | 50 | 120 | 2.0 | 9.0 | 0.00 | 0.00 | 0.00 | 90 | 1014.2 |
| 20260507063309 | 50 | 155 | 5.0 | 8.0 | 0.00 | 0.00 | 0.00 | 91 | 1014.1 |
| 20260507062309 | 50 | 117 | 3.0 | 8.0 | 0.00 | 0.00 | 0.00 | 92 | 1014.1 |